When you browse on this site, cookies collect data to enhance your experience and personalize the content and advertising you see.
Visit our Privacy Policy to learn more. By continuing to use the site, you agree to this use of cookies and data.
  • In Lithuania
  • List of Countries
  • For 7 days
  • Water Temperature
  • Satellite Maps
  • Weather Map
  • Weather Widgets
  • user-avatar
    Login

    Hourly Weather Klagenfurt

    Today, 21 May, Tuesday

    Time Temperature Precipitation Wind Pressure Humidity
    00:00 +9°C° 0.4 mm 1 mps 682 mmHg 96%
    01:00 +8°C° 0 mm 2 mps 682 mmHg 97%
    02:00 +9°C° 1 mm 1 mps 682 mmHg 97%
    03:00 +9°C° 1 mm 1 mps 682 mmHg 97%
    04:00 +9°C° 1 mm 1 mps 682 mmHg 97%
    05:00 +9°C° 0.7 mm 1 mps 682 mmHg 97%
    06:00 +9°C° 0.7 mm 1 mps 682 mmHg 96%
    07:00 +10°C° 0.7 mm 1 mps 683 mmHg 96%
    08:00 +11°C° 0.4 mm 1 mps 683 mmHg 92%
    09:00 +12°C° 0.4 mm 1 mps 684 mmHg 88%
    10:00 +13°C° 0.4 mm 1 mps 684 mmHg 84%
    11:00 +13°C° 0.4 mm 2 mps 684 mmHg 83%
    12:00 +13°C° 0.4 mm 2 mps 685 mmHg 81%
    13:00 +14°C° 0.4 mm 2 mps 685 mmHg 79%
    14:00 +14°C° 0.3 mm 2 mps 685 mmHg 80%
    15:00 +13°C° 0.3 mm 2 mps 685 mmHg 81%
    16:00 +13°C° 0.3 mm 2 mps 685 mmHg 82%
    17:00 +13°C° 0.1 mm 2 mps 685 mmHg 86%
    18:00 +12°C° 0.1 mm 1 mps 685 mmHg 89%
    19:00 +11°C° 0.1 mm 1 mps 685 mmHg 92%
    20:00 +11°C° 0.1 mm 1 mps 686 mmHg 94%
    21:00 +10°C° 0.1 mm 1 mps 686 mmHg 95%
    22:00 +10°C° 0.1 mm 1 mps 686 mmHg 97%
    23:00 +10°C° 0.1 mm 1 mps 686 mmHg 97%

    Tomorrow, 22 May, Wednesday

    Time Temperature Precipitation Wind Pressure Humidity
    00:00 +10°C° 0.1 mm 1 mps 687 mmHg 97%
    01:00 +10°C° 0.1 mm 1 mps 687 mmHg 96%
    02:00 +9°C° 0.1 mm 1 mps 687 mmHg 97%
    03:00 +9°C° 0.1 mm 1 mps 687 mmHg 97%
    04:00 +9°C° 0.1 mm 1 mps 687 mmHg 97%
    05:00 +10°C° 0 mm 1 mps 687 mmHg 93%
    06:00 +11°C° 0 mm 1 mps 687 mmHg 90%
    07:00 +12°C° 0 mm 1 mps 688 mmHg 86%
    08:00 +14°C° 0 mm 1 mps 688 mmHg 79%
    09:00 +16°C° 0 mm 1 mps 689 mmHg 71%
    10:00 +19°C° 0 mm 1 mps 689 mmHg 63%
    11:00 +19°C° 0.4 mm 1 mps 689 mmHg 64%
    12:00 +18°C° 0.4 mm 2 mps 689 mmHg 66%
    13:00 +19°C° 0.4 mm 2 mps 689 mmHg 67%
    14:00 +18°C° 1 mm 2 mps 689 mmHg 71%
    15:00 +17°C° 1 mm 2 mps 689 mmHg 75%
    16:00 +17°C° 1 mm 2 mps 689 mmHg 78%
    17:00 +15°C° 1.3 mm 1 mps 689 mmHg 83%
    18:00 +14°C° 1.3 mm 1 mps 689 mmHg 87%
    19:00 +13°C° 1.3 mm 1 mps 689 mmHg 92%
    20:00 +12°C° 0.6 mm 1 mps 689 mmHg 92%
    21:00 +12°C° 0.6 mm 1 mps 690 mmHg 93%
    22:00 +11°C° 0.6 mm 1 mps 690 mmHg 94%
    23:00 +10°C° 0.1 mm 1 mps 690 mmHg 95%

    Day after tomorrow, 23 May, Thursday

    Time Temperature Precipitation Wind Pressure Humidity
    00:00 +10°C° 0.1 mm 1 mps 690 mmHg 95%
    01:00 +9°C° 0.1 mm 1 mps 690 mmHg 96%
    02:00 +8°C° 0 mm 1 mps 690 mmHg 96%
    03:00 +8°C° 0 mm 1 mps 689 mmHg 96%
    04:00 +7°C° 0 mm 1 mps 689 mmHg 95%
    05:00 +9°C° 0 mm 1 mps 690 mmHg 91%
    06:00 +11°C° 0 mm 1 mps 690 mmHg 87%
    07:00 +12°C° 0 mm 1 mps 690 mmHg 83%
    08:00 +15°C° 0 mm 1 mps 691 mmHg 71%
    09:00 +18°C° 0 mm 1 mps 691 mmHg 60%
    10:00 +21°C° 0 mm 1 mps 692 mmHg 48%
    11:00 +21°C° 0.4 mm 1 mps 692 mmHg 52%
    12:00 +20°C° 0.4 mm 1 mps 692 mmHg 56%
    13:00 +20°C° 0.4 mm 1 mps 691 mmHg 60%
    14:00 +20°C° 1.1 mm 1 mps 691 mmHg 64%
    15:00 +19°C° 1.1 mm 1 mps 690 mmHg 69%
    16:00 +18°C° 1.1 mm 1 mps 690 mmHg 73%
    17:00 +15°C° 0.7 mm 0 mps 690 mmHg 77%
    18:00 +14°C° 0.7 mm 0 mps 690 mmHg 81%
    19:00 +13°C° 0.7 mm 0 mps 690 mmHg 85%
    20:00 +11°C° 0.1 mm 0 mps 690 mmHg 86%
    21:00 +10°C° 0.1 mm 0 mps 690 mmHg 88%
    22:00 +9°C° 0.1 mm 0 mps 690 mmHg 90%
    23:00 +8°C° 0 mm 0 mps 690 mmHg 91%

    24 May, Friday

    Time Temperature Precipitation Wind Pressure Humidity
    00:00 +8°C° 0 mm 0 mps 690 mmHg 92%
    01:00 +7°C° 0 mm 0 mps 690 mmHg 93%
    02:00 +7°C° 0 mm 0 mps 690 mmHg 94%
    03:00 +8°C° 0 mm 1 mps 689 mmHg 94%
    04:00 +8°C° 0 mm 1 mps 689 mmHg 94%
    05:00 +9°C° 0 mm 1 mps 689 mmHg 90%
    06:00 +10°C° 0 mm 0 mps 690 mmHg 86%
    07:00 +11°C° 0 mm 0 mps 690 mmHg 82%
    08:00 +14°C° 0 mm 0 mps 690 mmHg 71%
    09:00 +17°C° 0 mm 0 mps 691 mmHg 60%
    10:00 +19°C° 0 mm 0 mps 691 mmHg 49%
    11:00 +20°C° 0.1 mm 0 mps 691 mmHg 47%
    12:00 +21°C° 0.1 mm 0 mps 691 mmHg 45%
    13:00 +22°C° 0.1 mm 0 mps 691 mmHg 43%
    14:00 +23°C° 0.2 mm 1 mps 690 mmHg 46%
    15:00 +22°C° 0.2 mm 1 mps 690 mmHg 49%
    16:00 +21°C° 0.2 mm 1 mps 689 mmHg 53%
    17:00 +19°C° 0.2 mm 1 mps 689 mmHg 62%
    18:00 +16°C° 0.2 mm 1 mps 688 mmHg 72%
    19:00 +14°C° 0.2 mm 0 mps 688 mmHg 81%
    20:00 +12°C° 0 mm 0 mps 688 mmHg 84%
    21:00 +11°C° 0 mm 0 mps 688 mmHg 88%
    22:00 +10°C° 0 mm 0 mps 689 mmHg 91%
    23:00 +9°C° 0 mm 0 mps 689 mmHg 92%

    25 May, Saturday

    Time Temperature Precipitation Wind Pressure Humidity
    00:00 +9°C° 0 mm 0 mps 689 mmHg 93%
    01:00 +8°C° 0 mm 0 mps 689 mmHg 93%
    02:00 +8°C° 0 mm 0 mps 688 mmHg 94%
    03:00 +8°C° 0 mm 0 mps 688 mmHg 94%
    04:00 +9°C° 0 mm 1 mps 688 mmHg 94%
    05:00 +10°C° 0 mm 0 mps 688 mmHg 88%
    06:00 +11°C° 0 mm 0 mps 689 mmHg 83%
    07:00 +13°C° 0 mm 0 mps 689 mmHg 78%
    08:00 +15°C° 0.1 mm 0 mps 690 mmHg 71%
    09:00 +19°C° 0.1 mm 1 mps 690 mmHg 65%
    10:00 +21°C° 0.1 mm 1 mps 690 mmHg 59%
    11:00 +21°C° 0.6 mm 1 mps 690 mmHg 61%
    12:00 +21°C° 0.6 mm 1 mps 690 mmHg 63%
    13:00 +21°C° 0.6 mm 1 mps 690 mmHg 64%
    14:00 +21°C° 0.8 mm 1 mps 690 mmHg 66%
    15:00 +20°C° 0.8 mm 2 mps 689 mmHg 67%
    16:00 +19°C° 0.8 mm 2 mps 689 mmHg 69%
    17:00 +19°C° 0.4 mm 1 mps 689 mmHg 74%
    18:00 +18°C° 0.4 mm 1 mps 689 mmHg 80%
    19:00 +15°C° 0.4 mm 1 mps 689 mmHg 85%
    20:00 +14°C° 0.1 mm 1 mps 689 mmHg 88%
    21:00 +13°C° 0.1 mm 1 mps 689 mmHg 91%
    22:00 +11°C° 0.1 mm 1 mps 689 mmHg 95%
    23:00 +11°C° 0 mm 1 mps 689 mmHg 95%

    26 May, Sunday

    Time Temperature Precipitation Wind Pressure Humidity
    00:00 +10°C° 0 mm 1 mps 688 mmHg 95%
    01:00 +10°C° 0 mm 1 mps 688 mmHg 95%
    02:00 +10°C° 0 mm 1 mps 688 mmHg 95%
    03:00 +10°C° 0 mm 1 mps 688 mmHg 95%
    04:00 +9°C° 0 mm 1 mps 688 mmHg 95%
    05:00 +11°C° 0 mm 1 mps 688 mmHg 91%
    06:00 +11°C° 0 mm 0 mps 689 mmHg 88%
    07:00 +13°C° 0 mm 0 mps 689 mmHg 84%
    08:00 +14°C° 0.2 mm 0 mps 690 mmHg 79%
    09:00 +16°C° 0.2 mm 0 mps 690 mmHg 73%
    10:00 +17°C° 0.2 mm 0 mps 690 mmHg 68%
    11:00 +20°C° 0.3 mm 1 mps 690 mmHg 64%
    12:00 +21°C° 0.3 mm 1 mps 690 mmHg 61%
    13:00 +22°C° 0.3 mm 1 mps 690 mmHg 58%
    14:00 +22°C° 0.6 mm 1 mps 690 mmHg 60%
    15:00 +21°C° 0.6 mm 1 mps 690 mmHg 62%
    16:00 +20°C° 0.6 mm 2 mps 689 mmHg 65%
    17:00 +19°C° 0.4 mm 1 mps 689 mmHg 71%
    18:00 +18°C° 0.4 mm 1 mps 689 mmHg 78%
    19:00 +15°C° 0.4 mm 1 mps 689 mmHg 85%
    20:00 +14°C° 0.4 mm 1 mps 689 mmHg 87%
    21:00 +13°C° 0.4 mm 1 mps 690 mmHg 90%
    22:00 +12°C° 0.4 mm 1 mps 690 mmHg 93%
    23:00 +12°C° 0.1 mm 1 mps 690 mmHg 94%
    Show more